Regional Weather Roundup
Issued by NWS

Home | Current Version | Previous Version | Text Only | Print | Product List | Glossary Off
Versions: 1 2 3 4 5 6 7 8 9 10 11 12 13 14 15 16 17 18 19 20 21 22 23 24 25 26 27 28 29 30 31 32 33 34 35 36 37 38 39 40 41 42 43 44 45 46 47 48 49 50

000
ASUS43 KLOT 221908
RWRIL

ILLINOIS REGIONAL WEATHER ROUNDUP
NATIONAL WEATHER SERVICE CHICAGO/ROMEOVILLE IL
200 PM CDT TUE AUG 22 2017

NOTE: "FAIR" INDICATES FEW OR NO CLOUDS BELOW 12,000 FEET WITH NO
SIGNIFICANT WEATHER AND/OR OBSTRUCTIONS TO VISIBILITY.

* THESE STATIONS ARE NOT UNDER NWS QUALITY CONTROL. THEY ALSO MAY NOT
  REPORT WEATHER SUCH AS PRECIPITATION OR FOG.

ILZ001-002-007-009-015-016-024-222000-
NORTHWEST ILLINOIS

CITY           SKY/WX    TMP DP  RH WIND       PRES   REMARKS
MOLINE         MOSUNNY   79  55  43 W17G28    30.00R
STERLING*      MOSUNNY   78  57  48 W20G26    29.97R
SAVANNA*       SUNNY     78  54  44 NW14G23   29.98S
$$

ILZ003-004-008-010-011-017-018-222000-
NORTH CENTRAL ILLINOIS

CITY           SKY/WX    TMP DP  RH WIND       PRES   REMARKS
ROCKFORD       MOSUNNY   79  55  43 NW18      29.95R
FREEPORT*      PTSUNNY   76  55  47 W20G26    29.98R
ROCHELLE*      PTSUNNY   76  58  52 NW14G21   29.96R
DE KALB*       PTSUNNY   76  61  58 NW9G22    29.95R
PERU*          PTSUNNY   73  61  65 NW14G20   29.97S
$$

ILZ005-006-012>014-019>023-222000-
NORTHEAST ILLINOIS

CITY           SKY/WX    TMP DP  RH WIND       PRES   REMARKS
CHICAGO-OHARE  PTSUNNY   78  55  44 NW21      29.90R
CHICAGO-MIDWAY PTSUNNY   79  62  56 NW16      29.90S HX  80
AURORA         MOSUNNY   77  61  57 NW14G22   29.93S
LANSING*       PTSUNNY   78  60  53 W12G22    29.91S HX  80
JOLIET*        PTSUNNY   78  65  63 NW9       29.93S HX  80
WAUKEGAN       MOSUNNY   77  56  48 NW12G18   29.89R
DUPAGE AIRPORT MOSUNNY   78  58  49 NW17G26   29.92R
KANKAKEE*      CLOUDY    74  65  74 W13G21    29.95R
WHEELING       MOSUNNY   80  58  46 NW16      29.91R HX  80
MORRIS*        MOSUNNY   76  64  67 NW13      29.93S
ROMEOVILLE*    PTSUNNY   75  62  63 NW13G20   29.92S
NORTHERLY ISL    N/A     77  59  53 W7          N/A
$$

LMZ740>746-222000-
SOUTHERN LAKE MICHIGAN

STATION/POSITION SKY/WX   TEMP    WIND        PRES    VSBY  WAVE
                          AIR SEA DIR/SP/G                  HT/PER
                          (F)     (DEG/KT/KT) (MB)    (MI)  (FT/S)
SOUTHERN BUOY              72 72  350/ 17/ 21 1011.2R         3/ 4
WILMETTE HARBOR            75 74  300/ 12/ 17   N/A           2/ 3
HARRISON CRIB              75     310/ 13/ 14   N/A
CALUMET HARBOR             78     280/  7/ 14 1011.9R
BURNS HARBOR               74     300/ 11/ 12 1012.9R
MICHIGAN CITY              73     290/ 14/ 15   N/A
MICHIGAN CITY 6N           73 74  320/ 12/ 16   N/A           4/ 4
ST. JOSEPH                 72 73  300/ 12/ 16 1012.2          5/ 5
$$

ILZ025>027-034>036-040-047-049-050-058-095>099-222000-
WEST-CENTRAL ILLINOIS

CITY           SKY/WX    TMP DP  RH WIND       PRES   REMARKS
QUINCY         MOSUNNY   80  59  48 NW14      30.03R HX  81
GALESBURG*     MOSUNNY   76  60  56 NW15G21   30.02R
MACOMB*        MOSUNNY   77  62  60 NW10G17   30.04R
JACKSONVILLE*  PTSUNNY   78  66  66 NW12G18   30.01R HX  80
PITTSFIELD*    PTSUNNY   79  67  68 NW9G16    30.04R HX  81
$$

ILZ028>032-037-038-041>044-048-051>054-059>061-222000-
CENTRAL ILLINOIS

CITY           SKY/WX    TMP DP  RH WIND       PRES   REMARKS
PONTIAC        CLOUDY    75  68  78 NW17      29.97S
BLOOMINGTON    PTSUNNY   76  63  64 NW21      29.99R
DECATUR        PTSUNNY   79  65  62 W14       29.97S HX  81
PEORIA         MOSUNNY   78  63  59 N12G20    29.99R HX  80
LACON*         PTSUNNY   75  63  66 NW7G18    29.98R
LINCOLN*       MOSUNNY   80  67  65 NW9       29.98R HX  82
SPRINGFIELD    PTSUNNY   80  68  66 NW14      30.00R HX  83
TAYLORVILLE    CLOUDY    77  67  69 W10G18    29.99S
$$

ILZ033-039-045-046-055>057-062-063-222000-
EAST-CENTRAL ILLINOIS

CITY           SKY/WX    TMP DP  RH WIND       PRES   REMARKS
CHAMPAIGN      PTSUNNY   80  67  64 W12G20    29.96S HX  82
RANTOUL*       CLOUDY    79  69  71 W13G20    29.96R HX  81
MATTOON        LGT RAIN  79  68  69 W14G22    29.96S HX  81
PARIS*         CLOUDY    80  69  69 W13       29.96S HX  82
$$

ILZ079-100>102-222000-
SOUTHWEST ILLINOIS

CITY           SKY/WX    TMP DP  RH WIND       PRES   REMARKS
ALTON          PTSUNNY   79  68  69 NW12      30.02S HX  81
BELLEVILLE     MOSUNNY   80  69  67 NW14      30.01F HX  83
CAHOKIA*       CLOUDY    81  70  69 NW9       30.01F HX  84
SPARTA*        CLOUDY    78  69  74 NW8G17    30.01F HX  80
$$

ILZ064>066-069>071-074>076-080>082-084>086-088>090-092>094-222000-
SOUTH-CENTRAL ILLINOIS

CITY           SKY/WX    TMP DP  RH WIND       PRES   REMARKS
CARBONDALE     CLOUDY    81  71  71 NW13G20   29.99F HX  85
CAIRO*         CLOUDY    82  75  79 NW17      29.96S THUNDER HX  88
EFFINGHAM*     PTSUNNY   80  70  71 W10G17    30.00S HX  83
MARION         PTSUNNY   79  72  78 NW13      30.00S HX  82
MT. VERNON       N/A     79  71  76 VRB7      29.99F HX  82
CENTRALIA*     CLOUDY    78  71  80 W12       29.99S HX  80
SALEM*         CLOUDY    78  69  75 NW10      30.00S HX  80
METROPOLIS*    TSTM      81  76  86 SW10      29.97R HX  87
$$

ILZ067-068-072-073-078-083-087-091-222000-
SOUTHEAST ILLINOIS

CITY           SKY/WX    TMP DP  RH WIND       PRES   REMARKS
LAWRENCEVILLE  CLOUDY    78  70  76 NW12      29.97S HX  80
FLORA*         LGT RAIN  78  70  77 NW14      29.99S HX  80
FAIRFIELD*     CLOUDY    77  72  85 W3        29.99R
HARRISBURG*    CLOUDY    76  74  95 NW7       29.98F
ROBINSON*      CLOUDY    76  70  81 W9        29.97F
CARMI*         CLOUDY    75  74  96 NW7       29.96S THUNDER
$$

ABBREVIATIONS USED IN REMARKS
   TC - TEMPERATURE IN CELSIUS
  WCI - WIND CHILL INDEX
   HX - HEAT INDEX
  VSB - VISIBILITY
$$





USA.gov is the U.S. government's official web portal to all federal, state and local government web resources and services.